SCP
0 0 0 0 0 0 0 0 0 0 0 0 0 0 0 0 0 0 0 0 0 0 0 0 0 0 0 0 0 0 0 1 2 2 1 1 1 1 1 1 1 0 0 0
0 0 0 0 0 0 0 0 0 0 0 0 0 0 0 0 0 0 0 0 0 0 0 0 0 0 0 0 0 0 0 0 1 1 1 1 1 1 1 1 1 0 0 0
0 0 0 0 0 0 0 0 0 0 0 0 0 0 0 0 0 0 0 0 0 0 0 0 0 0 0 0 0 0 0 0 0 0 1 1 1 1 1 1 0 0 0 0
0 0 0 0 0 0 0 0 0 0 0 0 0 0 0 0 0 0 0 0 0 0 0 0 0 0 0 0 0 0 0 0 0 0 0 1 1 1 1 1 0 0 0 0
0 0 0 0 0 0 0 0 0 0 0 0 0 0 0 0 0 0 0 0 0 0 0 0 0 0 0 0 0 0 0 0 0 0 0 0 1 1 1 1 1 0 0 0
0 0 0 0 0 0 0 0 0 0 0 0 0 0 0 0 0 0 0 0 0 0 0 0 0 0 0 0 0 0 0 0 0 0 0 0 0 1 1 2 1 1 1 1
0 0 0 0 0 0 0 0 0 0 0 0 0 0 0 0 0 0 0 0 0 0 0 0 0 0 0 0 0 0 0 0 0 0 0 0 0 0 1 1 2 2 1 1
0 0 0 0 0 0 0 0 0 0 0 0 0 0 0 0 0 0 0 0 0 0 0 0 0 0 0 0 0 0 0 0 0 0 0 0 0 0 0 1 2 2 2 1
0 0 0 0 0 0 0 0 0 0 0 0 0 0 0 0 0 0 0 0 0 0 0 0 0 0 0 0 0 0 0 0 0 0 0 0 0 0 0 0 1 1 1 1
0 0 0 0 0 0 0 0 0 0 0 0 0 0 0 0 0 0 0 0 0 0 0 0 0 0 0 0 0 0 0 0 0 0 0 0 0 0 0 0 0 1 1 1
0 0 0 0 0 0 0 0 0 0 0 0 0 0 0 0 0 0 0 0 0 0 0 0 0 0 0 0 0 0 0 0 0 0 0 0 0 0 0 0 0 0 1 1
0 0 0 0 0 0 0 0 0 0 0 0 0 0 0 0 0 0 0 0 0 0 0 0 0 0 0 0 0 0 0 0 0 0 0 0 0 0 0 0 0 0 0 1
0 0 0 0 0 0 0 0 0 0 0 0 0 0 0 0 0 0 0 0 0 0 0 0 0 0 0 0 0 0 0 0 0 0 0 0 0 0 0 0 0 0 0 0
0 0 0 0 0 0 0 0 0 0 0 0 0 0 0 0 0 0 0 0 0 0 0 0 0 0 0 0 0 0 0 0 0 0 0 0 0 0 0 0 0 0 0 0
0 0 0 0 0 0 0 0 0 0 0 0 0 0 0 0 0 0 0 0 0 0 0 0 0 0 0 0 0 0 0 0 0 0 0 0 0 0 0 0 0 0 0 0
0 0 0 0 0 0 0 0 0 0 0 0 0 0 0 0 0 0 0 0 0 0 0 0 0 0 0 0 0 0 0 0 0 0 0 0 0 0 0 0 0 0 0 0
0 0 0 0 0 0 0 0 0 0 0 0 0 0 0 0 0 0 0 0 0 0 0 0 0 0 0 0 0 0 0 0 0 0 0 0 0 0 0 0 0 0 0 0
0 0 0 0 0 0 0 0 0 0 0 0 0 0 0 0 0 0 0 0 0 0 0 0 0 0 0 0 0 0 0 0 0 0 0 0 0 0 0 0 0 0 0 0
0 0 0 0 0 0 0 0 0 0 0 0 0 0 0 0 0 0 0 0 0 0 0 0 0 0 0 0 0 0 0 0 0 0 0 0 0 0 0 0 0 0 0 0
0 0 0 0 0 0 0 0 0 0 0 0 0 0 0 0 0 0 0 0 0 0 0 0 0 0 0 0 0 0 0 0 0 0 0 0 0 0 0 0 0 0 0 0
0 0 0 0 0 0 0 0 0 0 0 0 0 0 0 0 0 0 0 0 0 0 0 0 0 0 0 0 0 0 0 0 0 0 0 0 0 0 0 0 0 0 0 0
0 0 0 0 0 0 0 0 0 0 0 0 0 0 0 0 0 0 0 0 0 0 0 0 0 0 0 0 0 0 0 0 0 0 0 0 0 0 0 0 0 0 0 0
0 0 0 0 0 0 0 0 0 0 0 0 0 0 0 0 0 0 0 0 0 0 0 0 0 0 0 0 0 0 0 0 0 0 0 0 0 0 0 0 0 0 0 0
0 0 0 0 0 0 0 0 0 0 0 0 0 0 0 0 0 0 0 0 0 0 0 0 0 0 0 0 0 0 0 0 0 0 0 0 0 0 0 0 0 0 0 0
0 0 0 0 0 0 0 0 0 0 0 0 0 0 0 0 0 0 0 0 0 0 0 0 0 0 0 0 0 0 0 0 0 0 0 0 0 0 0 0 0 0 0 0
0 0 0 0 0 0 0 0 0 0 0 0 0 0 0 0 0 0 0 0 0 0 0 0 0 0 0 0 0 0 0 0 0 0 0 0 0 0 0 0 0 0 0 0
Wind_Speed
1 2 2 3 4 4 3 6 7 5 2 5 9 11 9 6 5 6 5 4 4 3 2 1 1 1 1 1 1 1 2 2 1 1 1 1 2 1 2 2 2 3 3 3
3 2 2 1 2 3 4 6 6 4 2 5 8 11 9 6 6 5 4 4 3 2 1 1 1 1 1 1 1 1 2 2 2 2 2 2 2 2 2 2 3 3 3 3
3 1 0 2 2 3 5 6 5 5 4 5 7 9 7 4 4 2 2 2 2 2 2 2 1 2 2 2 2 2 2 2 2 3 2 2 2 2 2 2 3 3 3 3
1 1 2 2 2 4 5 3 5 5 5 4 3 7 5 4 4 2 2 2 2 1 2 3 2 2 2 2 2 2 2 2 2 2 2 3 3 3 3 3 3 4 4 3
1 1 2 3 3 4 2 1 4 5 5 5 5 7 4 3 4 4 3 2 2 2 2 3 3 3 2 2 2 2 2 2 2 3 3 4 3 3 3 3 4 4 3 3
1 1 1 2 2 2 1 1 2 3 4 6 5 7 5 3 5 4 3 2 2 2 2 2 2 2 2 2 2 2 2 3 3 3 3 4 4 4 4 4 4 4 3 3
1 2 1 0 0 2 1 2 2 3 4 4 2 5 6 1 2 3 3 2 1 2 2 2 2 2 2 3 2 2 3 3 3 3 4 4 4 5 5 5 5 5 4 4
3 2 1 0 1 2 3 3 2 4 3 1 3 6 2 1 0 1 2 1 1 2 2 2 3 3 3 3 3 3 3 3 3 4 4 4 4 4 4 5 5 5 4 4
3 2 1 1 1 1 2 2 1 1 1 4 5 4 3 1 0 1 1 1 2 2 2 3 3 3 3 3 3 3 4 4 4 4 4 4 4 4 5 5 5 5 5 4
1 3 1 0 2 1 1 1 2 3 3 5 4 4 3 2 1 1 2 2 2 3 3 3 3 3 2 3 3 3 3 4 4 4 4 4 4 5 5 5 5 5 5 5
1 2 1 1 3 2 2 2 2 2 3 4 4 2 1 2 1 2 2 2 2 3 3 4 4 3 2 3 3 3 3 4 4 4 4 5 4 4 5 5 5 5 5 5
1 2 3 2 0 2 3 3 4 3 3 3 4 4 3 1 1 2 2 3 3 4 4 4 4 4 3 3 3 3 3 4 4 4 5 5 5 4 4 5 5 5 5 4
2 2 2 2 3 2 3 3 4 2 2 4 6 5 3 0 2 2 3 4 4 4 4 4 4 4 4 4 3 4 4 4 4 4 4 4 4 4 4 4 4 4 5 5
2 3 5 5 2 2 4 5 6 6 5 7 11 11 7 5 6 5 5 6 5 4 4 4 4 4 4 4 4 4 4 4 4 4 4 4 4 4 4 4 4 4 5 5
2 4 5 8 7 5 7 8 9 11 11 10 11 12 13 10 8 7 7 6 5 5 4 4 4 4 4 5 5 5 5 4 4 4 4 4 4 4 4 4 4 4 5 5
1 3 3 6 6 7 10 12 12 13 13 15 17 17 12 9 7 7 6 6 5 6 5 5 4 5 5 5 5 5 5 5 4 4 4 3 3 4 4 4 4 5 5 5
3 2 3 5 4 6 10 10 12 11 11 11 14 12 7 8 8 7 6 5 5 6 5 5 5 5 5 5 5 5 5 5 4 4 3 3 3 3 4 4 4 4 4 4
4 3 3 4 3 9 4 1 7 10 11 11 11 11 9 9 8 7 6 6 6 5 5 5 5 5 4 4 4 4 4 4 4 3 3 3 3 3 3 3 4 4 4 4
5 5 3 3 6 10 6 3 4 6 8 7 9 9 7 6 6 5 3 4 5 5 5 5 4 4 4 4 4 4 3 4 3 3 3 3 3 3 3 4 4 4 4 4
3 4 4 4 6 8 3 1 2 3 7 3 5 6 5 3 5 4 2 4 5 4 4 4 3 3 3 3 3 3 3 4 4 3 3 3 3 3 3 4 4 4 4 4
5 5 7 8 8 9 3 3 5 5 4 0 4 5 4 5 6 4 4 4 4 3 3 3 3 3 3 3 3 3 3 4 4 3 3 2 3 3 3 3 3 3 3 4
8 7 7 7 8 9 5 6 7 5 2 2 3 4 5 6 6 6 5 5 4 4 3 3 2 3 3 3 3 3 4 4 3 3 2 3 3 2 2 3 3 3 3 3
9 8 5 9 8 2 6 7 5 3 4 4 4 5 5 6 6 6 6 5 4 3 3 3 3 3 3 3 3 3 4 3 3 2 2 2 3 2 2 3 3 2 2 2
6 5 6 8 10 8 8 8 6 6 6 5 5 5 5 6 6 6 5 5 4 3 3 2 2 3 3 3 3 3 3 3 2 2 2 2 2 2 2 2 2 2 2 3
6 7 7 10 10 8 8 8 8 6 6 5 5 5 6 6 6 5 5 4 4 3 2 2 3 3 4 3 3 3 3 2 2 2 2 2 2 2 2 2 2 3 2 3
8 10 10 9 6 6 6 4 5 6 7 6 6 6 6 6 6 5 5 4 3 3 3 2 3 3 3 3 3 3 2 2 2 2 2 2 2 1 1 2 2 3 3 5
Wind_Direction
77 162 204 233 240 265 254 248 256 260 262 261 254 262 263 256 250 254 253 253 255 255 275 322 4 350 317 308 313 314 315 300 288 273 269 267 268 273 272 269 272 275 279 276
158 206 261 262 229 236 238 247 258 263 262 267 270 269 262 250 244 253 268 269 264 261 266 296 327 340 316 316 312 302 299 308 294 277 270 270 274 273 273 273 266 265 269 275
191 97 174 189 191 226 242 249 262 275 288 245 276 262 229 216 223 245 272 279 277 272 275 279 294 306 313 310 305 297 294 291 298 302 282 268 251 258 259 274 278 267 265 267
181 237 213 209 232 247 251 249 265 264 263 247 254 276 224 212 213 228 261 278 287 293 301 300 292 295 296 300 298 290 293 294 296 292 276 262 259 266 271 276 276 279 268 266
187 194 217 231 264 252 262 290 251 244 242 257 225 252 252 189 235 242 249 280 305 310 302 303 302 300 304 309 305 302 298 298 297 287 273 268 268 274 276 273 273 279 276 266
256 222 271 275 306 239 168 173 177 201 224 243 226 234 258 198 237 241 236 262 292 302 309 316 316 312 321 327 317 311 302 302 301 288 278 273 278 280 277 276 278 279 279 274
231 189 152 240 192 149 205 219 229 213 218 239 154 232 259 305 246 228 235 250 276 294 319 333 328 323 330 328 322 307 299 299 298 290 284 280 280 280 276 276 275 275 273 272
267 237 168 214 247 222 210 246 257 267 264 270 192 239 266 28 280 244 235 243 280 309 334 333 324 316 318 320 318 308 301 299 297 292 292 288 285 280 280 276 274 271 270 269
261 273 64 25 337 231 186 210 317 288 305 270 243 254 271 217 224 212 219 264 291 312 326 324 318 313 315 320 317 309 301 300 301 299 295 287 285 283 280 278 276 273 274 274
275 266 255 306 184 91 323 153 184 219 260 264 261 252 253 216 236 230 245 273 305 306 311 320 318 315 311 313 311 307 300 296 298 298 295 289 285 281 281 279 279 280 280 275
248 242 246 198 211 208 162 179 218 226 274 274 278 267 62 233 227 248 257 277 300 303 309 316 318 318 308 311 311 306 299 299 299 297 290 285 284 284 283 281 282 282 279 277
224 249 255 235 77 313 246 224 203 231 227 242 271 277 74 224 283 292 285 289 296 301 309 313 318 321 322 312 312 309 303 301 302 300 292 288 287 286 285 287 289 289 287 285
171 208 247 202 180 189 229 224 220 234 234 229 244 259 98 349 326 321 301 296 300 301 311 318 322 325 328 327 316 307 305 306 307 303 296 292 292 293 293 296 298 295 290 288
186 220 239 259 302 192 228 219 208 210 231 244 244 265 279 296 305 303 294 287 294 298 299 308 316 321 326 328 323 318 317 315 308 304 300 302 305 305 301 302 303 299 293 289
213 238 243 262 271 256 249 241 222 221 233 248 264 268 279 291 293 289 289 287 289 294 295 299 307 314 319 322 324 323 319 319 316 310 305 305 307 305 306 308 307 304 300 298
207 243 252 257 253 254 261 254 241 238 242 250 265 273 281 291 286 281 283 283 282 290 293 296 304 309 311 314 316 318 317 315 311 306 305 309 311 312 312 311 311 309 307 306
198 205 247 259 278 272 257 242 228 229 230 237 251 265 287 287 286 285 287 282 275 284 290 294 297 298 303 305 307 308 312 313 310 307 311 313 316 316 314 313 312 310 310 312
191 195 231 272 270 246 260 198 222 233 245 240 257 273 282 288 295 287 278 274 281 286 289 292 293 295 299 301 304 305 307 308 307 305 309 312 313 311 312 313 313 312 312 314
209 198 214 237 257 270 272 230 207 228 259 242 251 269 279 297 292 268 260 266 277 284 287 290 289 287 292 297 304 303 303 305 300 300 305 311 310 308 312 314 315 315 314 314
181 200 218 223 247 256 265 125 160 207 260 228 232 251 269 277 273 293 331 291 290 293 291 293 294 289 290 299 303 298 302 305 302 303 304 303 300 298 302 305 308 311 310 312
182 198 216 228 244 263 260 151 164 220 277 190 222 241 247 245 260 301 303 297 294 291 291 293 290 284 288 297 292 287 295 302 305 308 307 305 299 297 298 302 304 310 313 315
192 195 204 208 229 249 157 158 205 252 331 240 244 246 248 256 271 278 282 285 288 290 292 290 290 290 297 298 285 284 293 304 306 305 303 304 305 305 303 304 307 312 312 311
213 210 206 209 231 273 183 212 240 263 253 254 257 260 253 259 267 271 273 272 271 272 279 282 278 286 297 298 283 280 295 302 301 300 302 305 308 308 307 307 309 315 313 307
221 212 228 248 255 253 244 245 249 248 253 259 260 259 246 252 264 266 266 264 265 267 269 273 276 283 295 300 291 284 291 287 285 295 304 307 307 314 319 316 315 315 315 311
217 187 220 248 262 273 251 237 246 249 250 254 255 252 251 253 259 260 260 259 262 266 265 260 266 276 289 297 295 294 292 278 280 291 299 305 304 308 319 327 330 318 317 314
207 202 208 237 233 229 253 252 241 240 243 245 251 258 257 251 253 255 254 256 258 260 261 265 272 280 291 297 295 297 287 267 264 281 298 298 297 307 319 329 342 355 335 341